Regional Weather Roundup
Issued by NWS Wakefield, VA

Home | Current Version | Previous Version | Graphics & Text | Print | Product List | Glossary On
Versions: 1 2 3 4 5 6 7 8 9 10 11 12 13 14 15 16 17 18 19 20 21 22 23 24 25 26 27 28 29 30 31 32 33 34 35 36 37 38 39 40 41 42 43 44 45 46 47 48 49 50
536
ASUS41 KAKQ 262315
RWRAKQ

REGIONAL WEATHER ROUNDUP
NATIONAL WEATHER SERVICE WAKEFIELD VA
700 PM EDT FRI AUG 26 2016

Note: "fair" indicates few or no clouds below 12,000 feet with no
significant weather and/or obstructions to visibility. * = Denotes
station may not report precipitation (e.g., rain,snow,etc.),
thunder or fog.

VAZ042-051-052>054-056-270000-
NORTHERN VIRGINIA

CITY           SKY/WX    TMP DP  RH WIND       PRES   REMARKS
WASH NATIONAL  PTCLDY    92  69  47 NW10      30.02F HX  97
DULLES         PTCLDY    91  67  44 N6        30.04S
FORT BELVOIR   CLEAR     91  71  51 W2        30.02S HX  97
QUANTICO       CLEAR     90  77  65 CALM      30.03S HX 103
FREDERICKSBRG*   N/A     91  75  60 NE5       30.02R HX 101
STAFFORD*      MOCLDY    90  72  54 E3        30.07S HX  96
WARRENTON      CLEAR     91  69  48 CALM      30.04S HX  95
CULPEPER*      MOCLDY    90  78  68 CALM      30.04S HX 104
MANASSAS*      CLEAR     90  75  62 SE5       30.03S HX 100
LEESBURG*      CLEAR     91  72  52 N3        30.05S HX  98
WINCHESTER     CLEAR     90  66  45 CALM      30.06S
FRONT ROYAL*   MOCLDY    86  75  70 CALM      30.05S HX  95
LURAY*         FAIR      90  72  55 NE3       30.06S HX  96
$$

VAZ048-049-060>072-079>083-270000-
CENTRAL AND SOUTH CENTRAL VIRGINIA

CITY           SKY/WX    TMP DP  RH WIND       PRES   REMARKS
RICHMOND       PTCLDY    92  69  47 NE7       30.02F HX  97
CHESTERFIELD*  FAIR      93  64  38 E5        30.04S HX  95
PETERSBURG*    MOCLDY    93  72  49 CALM      30.03S HX 101
HANOVER        CLEAR     87  77  72 CALM      30.04F HX  99
TAPPAHANNOCK*  CLEAR     91  74  57 CALM      30.03F HX 100
QUINTON*       FAIR      92  75  57 CALM      30.01F HX 103
CHARLOTTSVILLE CLOUDY    86  73  65 VRB6      30.05S
GORDONSVILLE*  FAIR      88  75  66 CALM      30.04S HX  97
ORANGE*          N/A     86  75  70 CALM      30.06S HX  95
LOUISA*        CLEAR     86  81  84 CALM      30.04S HX 102
BUMPASS*       FAIR      86  80  80 CALM      30.04S HX 101
FARMVILLE*     CLEAR     88  72  58 CALM      30.03S
CREWE*         MOCLDY    91  75  59 CALM      30.04S HX 101
FORT PICKETT*  NOT AVBL
CHASE CITY*    FAIR      92  71  49 CALM      30.04S HX  98
CLARKSVILLE*   FAIR      91  72  52 NE5       30.04R HX  98
SOUTH HILL*    CLEAR     88  76  67 CALM      30.10S HX  98
LAWRENCEVILLE* FAIR      91  75  60 CALM      30.03S HX 101
EMPORIA*       CLEAR     91  73  55 CALM      30.04S HX 100
$$

VAZ088>098-270000-
SOUTHEAST VIRGINIA

CITY           SKY/WX    TMP DP  RH WIND       PRES   REMARKS
NORFOLK        CLEAR     88  74  63 NE5       30.02S HX  96
VIRGINIA BEACH MOCLDY    93  75  55 E5        30.01F HX 104
NORFOLK NAVAL  PTCLDY    89  71  55 E3        30.04S HX  95
WEST POINT*    CLEAR     91  73  55 CALM      30.03F HX  99
SALUDA*        FAIR      88  76  67 E3        30.02F HX  98
NEWPORT NEWS   CLEAR     89  71  55 E8        30.02F HX  95
LANGLEY AFB    CLEAR     89  73  57 E5        30.02S HX  97
FORT EUSTIS    CLEAR     90  75  62 SE5       30.00S HX 100
WILLIAMSBURG*  CLEAR     90  77  66 CALM      30.03S HX 102
HR EXEC AP*    FAIR      90  73  58 CALM      30.04S HX  98
FRANKLIN*      CLEAR     91  74  57 CALM      30.03S HX 100
US460-WAKEFLD  CLEAR     91  75  59 CALM      30.02F HX 101
$$

VAZ020-022-025-037-045-270000-
WEST CENTRAL AND SOUTHWEST VIRGINIA

CITY           SKY/WX    TMP DP  RH WIND       PRES   REMARKS
STAUNTON*      CLOUDY    87  73  61 SE6       30.11R
WAYNESBORO*    FAIR      82  70  65 S7        30.11S
HOT SPRINGS VA SUNNY     80  65  59 N5        30.26S
LYNCHBURG      CLEAR     88  74  63 SW3       30.09R HX  96
DANVILLE       CLEAR     91  70  49 NE5       30.05S HX  96
SOUTH BOSTON*  FAIR      93  72  50 CALM      30.04S HX 100
MARTINSVILLE   SUNNY     85  75  74 CALM      30.10S
ROANOKE        MOSUNNY   89  70  53 S7        30.11R
BLACKSBURG     SUNNY     85  69  56 E3        30.18S
DUBLIN*        SUNNY     87  68  52 CALM      30.17S
MARION*        SUNNY     83  68  58 E5        30.21S
HILLSVILLE*    SUNNY     82  69  62 CALM      30.19S
RICHLANDS*     FAIR      82  69  64 CALM      30.20F
WISE*          SUNNY     82  55  39 N6        30.22S
ABINGDON*      MOSUNNY   87  67  50 NE6       30.15F
$$

MDZ021>025-VAZ099-100-270000-
SOUTHERN MARYLAND AND THE DELMARVA PENINSULA

CITY           SKY/WX    TMP DP  RH WIND       PRES   REMARKS
PATUXENT RIVER PTCLDY    87  73  62 E3        30.02S
BAY BRIDGE APT CLEAR     88  72  58 N3        30.02S
LEONARDTOWN    CLEAR     88  72  58 CALM      30.04S
DOVER          CLEAR     89  74  60 NW9       30.00S HX  97
GEORGETOWN     CLEAR     90  71  53 CALM      30.02S HX  96
EASTON         CLEAR     90  77  66 N3        30.06S HX 102
CAMBRIDGE      CLEAR     88  72  58 CALM      30.02S
SALISBURY      CLEAR     89  72  56 N6        30.02R HX  96
OCEAN CITY     CLEAR     85  73  67 CALM      30.02S
WALLOPS ISLAND CLEAR     90  69  50 NW6       30.02S
ACCOMACK*      CLEAR     87  74  65 W3        30.02S HX  96
$$

NCZ012>017-030>032-270000-
NORTH CENTRAL AND EASTERN NORTH CAROLINA

CITY           SKY/WX    TMP DP  RH WIND       PRES   REMARKS
ROANOKE RAPIDS FAIR      88  79  74 CALM      30.03S HX 102
RALEIGH        PTCLDY    93  73  52 S6        30.03S HX 102
ELIZABETH CITY CLEAR     88  72  58 S6        30.03F
AHOSKIE*       CLEAR     88  75  64 SE3       30.03S HX  98
EDENTON*       CLEAR     91  72  54 S7        30.03F HX  97
CURRITUCK*       N/A     89  74  62 CALM      30.04S HX  97
KILL DEVIL HLS CLEAR     87  77  73 S3        30.03S HX  98
MANTEO         CLEAR     83  75  77 S9        30.04F
CAPE HATTERAS  CLEAR     84  69  60 S5        30.05F
TARBORO*       FAIR      91  78  64 CALM      30.03S HX 105
GOLDSBORO      CLEAR     92  74  54 SE6       30.01S HX 101
WASHINGTON     CLEAR     88  74  64 SE6       30.03S HX  96
GREENVILLE     CLEAR     91  73  55 SE6       30.04F HX 100
NEW BERN       CLEAR     86  75  69 SE6       30.05S HX  95
WILMINGTON     CLEAR     84  71  65 SE5       30.05S
$$

VAZ048-270000-
ELSEWHERE

CITY           SKY/WX    TMP DP  RH WIND       PRES   REMARKS
HARRISBURG PA  PTCLDY    88  68  51 NE5       30.03S
BALTIMORE      PTCLDY    90  69  50 NW3       30.02S
ANNAPOLIS      CLEAR     89  73  59 NE6       30.02S HX  97
ANDREWS AFB    CLEAR     89  69  52 N8        30.02F
PHILADELPHIA   PTCLDY    91  63  39 NW14      30.01S
HENDERSON NC   CLEAR     86  74  66 CALM      30.04S
GREENSBORO     MOSUNNY   91  69  48 N6        30.06F HX  96
ROCKY MOUNT    CLEAR     92  76  59 CALM      30.02F HX 104
$$

VAZ100-270000-
MARINE

STATION/POSITION TIME  TEMP    WIND        PRES    WAVE   SWELL
                       AIR SEA DIR/SP/G            HT/PER HT/PER
                 (UTC) (F)     (DEG/KT/KT) (MB)    (FT/S) (FT/S)
BRANDYWINE LGT   2200   86                   N/A
CAPE MAY NJ      2200   86 76              1015.8F
LEWES DE         2200   82 76              1016.3R
OCEAN-CITY-INLET 2200   86 72              1016.9S
WACHAPREAGUE VA  2200   90 85              1016.7F
THOMAS POINT MD  2300   87 84   40/  4/  5 1018.0S
GOOSES REEF MD   2300   89 85   90/  2/  2 1017.2R   0
COVE POINT MD    2200   88                 1017.2F
SOLOMONS ISLAND  2200   90 84                N/A
PINEY POINT MD   2230          320/  6/  6   N/A
POTOMAC MD       2300   88 85   90/  2/  2 1015.5F   0
CAMBRIDGE MD     2200   89 83              1015.9S
LEWISETTA VA     2200   91 83              1016.4R
RAPPAHANNOCK LGT 2200                      1017.4F
STINGRAY PT      2300   87 85  110/  6/  8 1017.2S   0
YORK RVR RNG VA  2200   85                 1016.4S
YORKTOWN VA      2200   88 82              1016.3S
JAMESTOWN VA     2300   91 87  130/  6/ 10   N/A     0
DOMINION TERM VA 2200   90                 1016.9F
KIPTOPEKE VA     2200      82                N/A
CHES BAY BRIDGE  2200   85 80              1016.7F
CAPE HENRY VA    2200   88                   N/A
WILLOUBY STN VA  2200   85                   N/A
CAPE HENRY BUOY  2212      80                N/A     2/ 8
1ST LANDING BUOY 2300   83 81  140/  6/  6 1016.2F   1/ 4
CAPE CHARLES BUO 2226      79                N/A     2/ 8
OFFSHORE WE BUOY 2221      80                N/A     2/ 8
64NM E OF VA BCH 2250   81 81  210/ 10/ 12 1016.9F   2/ 8   2/ 8
DUCK PIER NC     2200   84 79              1016.8F
44100 DUCK FRF   2205      80                N/A     2/ 8
44056 DUCK FRF   2211      80                N/A     2/ 7
OREGON INLET NC  2200   82 82              1017.5F
HATTERAS NC      2200   85 82              1017.7F
DIAMOND SHLS NC  2250   83 87  150/  2/  4 1017.9F   2/ 8   2/ 8
CAPE LOOKOUT NC  2300   82     110/  4/  5 1017.4F
$$




USA.gov is the U.S. government's official web portal to all federal, state and local government web resources and services.